Location: La Brionne
(46.1728°N, 1.7849°E)
Time: 08:46:29
(UTC+00:00)

Meteor 1-21 Rocket - Pass Details

Date: 16 June 2021
Orbit: 834 x 906 km, 81.2° (Epoch: 02 August)

Event Time Altitude Azimuth Distance (km) Brightness Sun altitude
Exits shadow 23:39:35 38° 196° (SSW) 1,273 4.6 -20.4°
Maximum altitude 23:41:51 83° 280° (W) 867 4.2 -20.4°
Drops below altitude 10° 23:47:35 10° 10° (N) 2,522 7.8 -20.4°
Sets 23:50:03 0° 11° (N) 3,475 8.9 -20.4°
